AirNav   Everest Fuels
 
 298 users online  

67AK South Hollywood Airport
Wasilla, Alaska, USA

GOING TO WASILLA?


FAA INFORMATION EFFECTIVE 10 OCTOBER 2019

Location

FAA Identifier: 67AK
Lat/Long: 61-32-04.7000N 149-40-12.3600W
61-32.078333N 149-40.206000W
61.5346389,-149.6701000
(estimated)
Elevation: 375 ft. / 114 m (estimated)
From city: 5 miles W of WASILLA, AK
Time zone: UTC -8 (UTC -9 during Standard Time)
Zip code: 99652

Airport Operations

Airport use: Private use. Permission required prior to landing
Activation date: 05/2004
Control tower: no
ARTCC: ANCHORAGE CENTER
FSS: KENAI FLIGHT SERVICE STATION [907-283-7211]
Attendance: UNATNDD
Segmented circle: no

Airport Communications

CTAF: 122.8
WX AWOS-3P at IYS (4 nm NE): 135.25 (907-373-3801)
WX AWOS-3P at BCV (8 nm SE): 135.55 (907-688-0826)
WX AWOS-3 at FRN (16 nm S): 134.25 or 118.525 (907-384-0132)
WX ASOS at PAQ (17 nm E): 134.75 (907-746-6675)
WX ASOS at MRI (20 nm S): 124.25 (907-271-5277)

Nearby radio navigation aids

VOR radial/distance  VOR name  Freq  Var
BGQr085/8.7BIG LAKE VORTAC112.5019E
TEDr003/23.5ANCHORAGE VOR/DME113.1518E

 
NDB name  Hdg/Dist  Freq  Var  ID
CAMPBELL LAKE010/24.433816ECMQ -.-. -- --.-

Airport Services

Runway Information

Runway E/W

Dimensions: 2640 x 240 ft. / 805 x 73 m
Surface: gravel
RUNWAY E  RUNWAY W
Traffic pattern: leftleft
Obstructions: 40 ft. trees40 ft. trees

Airport Ownership and Management from official FAA records

Ownership: Privately-owned
Owner: CROSS CREEK, INC
BOX 870948
WASILLA, AK 99687
Phone 907-376-2697
Manager: RODNEY WILLIS
4247 S EIDER CIR.
WASILLA, AK 99654
Phone (907) 357-5847

Airport Operational Statistics

Aircraft based on the field: 7
Single engine airplanes: 6
Helicopters: 1
    

Instrument Procedures

There are no published instrument procedures at 67AK.

Some nearby airports with instrument procedures:

PAGQ - Big Lake Airport (4 nm W)
PAWS - Wasilla Airport (4 nm NE)
PAFR - Bryant Army Airfield Heliport (16 nm S)
PAAQ - Warren "Bud" Woods Palmer Municipal Airport (17 nm E)
PAUO - Willow Airport (17 nm NW)
PAED - Elmendorf Air Force Base (17 nm S)
PAMR - Merrill Field Airport (20 nm S)
 
Loc | Ops | Rwys | IFR | FBO | Links
Com | Nav | Svcs | Stats | Notes

Crowley
 
Area around 67AK (South Hollywood Airport)
 
Road maps at: MapQuest Bing Google
 
Aerial photo
WARNING: Photo may not be current or correct
Aerial photo of 67AK (South Hollywood Airport)
Do you have a better or more recent aerial photo of South Hollywood Airport that you would like to share? If so, please send us your photo.

 
Sectional chart

 
Airport distance calculator
Flying to South Hollywood Airport? Find the distance to fly.

From to 67AK

Sunrise and sunset
Times for 17-Oct-2019
 Local
(UTC-8)
 Zulu
(UTC)
Morning civil twilight08:0416:04
Sunrise08:4916:49
Sunset18:3902:39
Evening civil twilight19:2403:24

Current date and time
Zulu (UTC)  17-Oct-2019 09:04:02
Local (UTC-8)  17-Oct-2019 01:04:02
 
METAR
PABV 
8nm SE 
170856Z AUTO 00000KT 10SM BKN070 OVC085 00/M02 A2906 RMK AO2 SLP848 T00001017 400281011 53001 FZRANO
PAFR 
16nm S 
170858Z AUTO 00000KT 10SM OVC055 M01/M01 A2901 RMK AO2 SLP832 T10061011 400151030 55001 $
PAAQ 
17nm E 
170853Z AUTO 00000KT 10SM OVC100 M01/M03 A2904 RMK AO2 SLP838 T10061028 400221022 55000 TSNO
PAED 
17nm S 
170845Z 01003KT 10SM SCT020 BKN050 BKN070 OVC090 01/M01 A2904 RMK AO2A SLP831 $
PAMR 
20nm S 
170853Z 00000KT 10SM -RA BKN055 OVC070 01/M02 A2905 RMK AO2 SLP837 P0000 60001 T00111017 400220000 58000
TAF
PAAQ 
17nm E 
170525Z 1706/1806 VRB04KT P6SM SCT080 BKN110
PAED 
17nm S 
170300Z 1703/1809 VRB06KT 8000 -RASN BKN040 BKN080 620409 QNH2903INS BECMG 1705/1706 VRB06KT 9999 VCSH SCT040 BKN080 620809 QNH2902INS BECMG 1712/1713 VRB06KT 9999 NSW SCT020 BKN040 620409 QNH2902INS TEMPO 1713/1716 8000 BR SCT010 BECMG 1721/1722 VRB06KT 9999 SCT010 BKN040 620409 QNH2902INS BECMG 1807/1808 VRB06KT 8000 BR SCT005 BKN020 QNH2902INS TX05/1800Z TN00/1715Z
NOTAMs
Click for the latest NOTAMs
NOTAMs are issued by the DoD/FAA and will open in a separate window not controlled by AirNav.

 

 
 

Would you like to see your business listed on this page?

 If your business provides an interesting product or service to pilots, flight crews, aircraft, or users of the South Hollywood Airport, you should consider listing it here.  To start the listing process, click on the button below
 
Add a business
 

Other Pages about South Hollywood Airport

Update a link
 
Copyright © AirNav, LLC. All rights reserved. Privacy Policy  Contact